Weather in Valpoi

India     15°31′44″N   74°08′07″E
temp.,
°C
wind,
m/s
gust,
m/s
humid.,
%
clouds,
%
prec.,
mm/h
press.,
hPa
HPBL,
m
12 may, wed
wed1223:30+24sse1288100 0.3 101058
02:30+24n0190100 0.0 100820
05:30+23e0092100 0.0 100811
08:30+27w1269100 0.0 1009611
11:30+34w2141100 0.0 10081401
14:30+36wsw4335100 0.0 10042536
17:30+30w4464100 0.1 1005910
20:30+25w248527 0.3 1007316
13 may, thu
thu1323:30+25w1289100 0.3 1007139
02:30+24w1391100 0.1 1006153
05:30+24wnw0193100 0.3 100630
08:30+28w2269100 0.0 1008788
11:30+35w2142100 0.0 10061671
14:30+34sw3345100 0.5 10031657
17:30+27sw1380100 2.6 1004338
20:30+25sw239056 0.9 1005114
14 may, fri
fri1423:30+24ssw119399 0.9 100539
02:30+23sse019499 0.2 100437
05:30+23s0093100 0.2 100417
08:30+27wsw1173100 0.1 1006468
11:30+35sw1343100 0.1 10041661
14:30+34wsw2343100 0.0 10001130
17:30+29wsw2469100 0.4 1001310
20:30+25sw1288100 1.1 1004142
15 may, sat
sat1523:30+24s0089100 1.3 100329
02:30+24e1188100 0.0 100115
05:30+25e2379100 0.0 100169
08:30+27ene2567100 0.0 1001212
11:30+33e5841100 0.0 10001596
14:30+32se61347100 0.0 9981921
17:30+27ese71861100 0.1 9981730
20:30+27e71561100 0.3 9991358
16 may, sun
sun1623:30+26ese102269100 0.8 9981692
02:30+24e71982100 1.9 9961406
05:30+23e92087100 10.3 9951245
08:30+23ese71893100 28.2 9971338
11:30+24se61591100 37.6 9981351
14:30+23sse61693100 9.6 9981439
17:30+23sse51593100 30.9 9991276
20:30+23sse51590100 3.5 10021365